CAPE
162 248 561 1055 1462 1007 603 1280 1329 1205 1443 1441 1321 1623 1626 1746 1820 1891 1690 1817 1884 1827 1439 1338 1493 1396 1585 1541 1499 1318 1397 1440 1490 1406 1334 1513 1403 1513 1355 1086 1120 941 1826
135 504 760 1295 1380 1144 1549 1659 1474 890 1104 1141 1458 1474 1477 1632 1438 1593 1719 1903 1775 1905 1761 1646 1603 1425 1551 1549 1516 1403 1331 1453 1527 1463 1170 1261 1302 1047 1265 1301 1191 1198 1399
311 559 897 1213 1395 1594 1649 1715 1391 1410 1326 1311 1416 1174 1111 1440 1866 1670 1368 1588 1665 1715 1537 1484 1627 1598 1559 1446 1343 1415 1485 1645 1545 732 618 364 691 1272 1210 1324 1470 1368 1497
491 606 930 933 1499 1514 1521 1554 1550 1499 1075 1487 1406 1419 1445 1165 1262 1525 1737 1537 1480 1691 1654 1605 1499 1541 1547 1579 1594 1456 1040 1056 593 744 464 226 420 1411 1293 1081 905 1103 1510
566 783 974 1481 1607 1128 1435 1213 1174 1317 1438 1522 1514 1074 903 728 612 691 893 1096 1494 1621 1633 1561 1453 1048 733 695 936 1159 1331 506 368 514 497 552 307 734 1026 1094 1181 1273 1329
659 851 1053 1546 1641 1684 1593 1149 1199 1254 1476 1428 1497 1472 1847 1221 1039 728 674 622 720 1095 1241 1145 891 600 300 636 505 1589 1517 781 718 428 554 298 476 1080 1193 842 861 933 1077
694 796 870 1560 1650 1918 1590 1242 1215 1704 1492 1487 1682 1719 1662 1934 1597 1016 875 624 591 610 696 852 639 317 506 1396 1033 1209 1114 322 78 242 503 552 620 915 1633 1213 923 1301 1256
655 910 727 1180 1773 1775 1435 1427 1680 1726 1714 1832 1931 1857 1803 1601 1481 1374 1194 1044 856 676 682 592 464 408 572 1141 873 816 360 225 0 33 83 120 228 712 1246 1219 964 837 1137
554 924 900 749 1326 1921 1336 1525 2096 1849 1761 1757 1894 1990 2061 1984 1688 1579 1368 1058 902 883 827 701 441 387 424 389 969 1026 218 17 61 82 39 143 226 695 544 596 594 650 718
416 770 998 827 1237 725 1418 1757 2285 1954 1722 1534 1683 1583 1429 1378 1503 1536 1420 1406 1253 868 630 526 532 487 495 419 704 237 15 1 18 58 31 12 357 855 830 965 1064 657 752
375 655 918 876 1121 1492 1244 1467 1056 1179 1026 993 1186 749 1170 1534 1661 1601 768 1035 1330 1548 1654 1571 1311 1039 832 822 308 98 44 0 0 0 0 0 0 32 394 425 318 547 599
267 482 798 650 432 1010 1026 1170 1040 974 1260 1414 1614 1738 1491 1703 1272 1359 1228 1067 1192 1145 1168 1207 1291 1465 1431 994 1186 821 703 353 8 0 0 0 0 0 44 85 106 99 128
229 256 635 662 1032 873 976 657 426 582 768 1106 1772 1918 1674 1429 1844 1757 1729 1809 1745 1597 1685 1817 1947 1800 1937 1619 1376 1325 1267 957 444 110 10 0 0 0 21 40 18 11 8
280 197 446 767 690 932 769 434 396 541 919 1087 1478 1778 1594 1439 1935 1774 1659 1666 1491 1619 1835 1816 1699 2185 2040 2069 2128 1905 1482 1199 673 460 176 0 0 0 37 128 123 72 51
310 286 458 506 695 858 783 793 941 627 954 1215 1386 1688 1452 1678 1978 1651 1791 1631 1657 1600 1553 1699 2012 2176 2164 1827 1873 1765 1460 1514 1438 879 645 137 21 27 77 166 320 371 317
396 350 401 299 624 763 612 1017 1375 1139 1036 1046 1275 1489 1538 1592 2162 1703 1578 1526 1546 1631 1577 1913 2291 2005 1897 1597 1652 1834 1650 1557 1728 1847 1227 767 232 91 109 265 363 486 663
417 473 262 353 352 553 685 859 1276 1238 503 770 1087 1429 1645 1741 1900 2092 1405 1324 1445 1577 1564 1724 1814 1828 1695 1626 1801 1813 1764 1672 1432 1663 1879 1356 917 447 318 258 386 452 539
126 324 262 137 115 286 507 926 858 962 1167 595 626 943 1380 1517 1696 1350 1109 1062 1474 1244 1303 1357 1615 1674 1840 1656 1519 1429 1552 1504 1654 1887 1711 1666 1280 1130 887 663 534 597 675
11 223 274 172 53 168 562 609 825 1053 1186 1009 316 308 992 1444 1497 1755 932 1110 1425 881 1157 1379 1433 1709 1611 1664 1178 1167 1284 1213 1184 1217 1795 2086 1937 1611 1438 1194 857 796 713
2 85 250 200 143 283 405 585 717 949 1096 1245 1126 701 926 1058 1501 1422 810 1137 1324 662 919 1630 1706 1512 1438 1579 1222 1038 975 955 1064 1282 1550 1531 1508 1824 1738 1788 1774 1509 752
54 44 70 129 221 420 550 545 453 592 841 1070 1262 1428 1702 1560 1671 1747 873 681 852 809 1262 1527 1400 1130 1297 1282 1286 774 674 650 802 1031 1193 1231 1276 1315 1460 1494 1738 1248 1076
342 276 188 146 325 487 264 246 483 995 885 968 1234 1552 1709 1650 1604 1717 1612 1107 1051 924 659 1213 1722 1359 972 1109 1389 918 387 301 619 891 1115 1018 1409 1243 1217 1341 1470 1450 810
467 570 570 541 448 622 315 419 924 1179 1260 977 803 823 894 1266 1586 1683 1801 1686 1638 1596 698 632 995 1579 1069 896 1459 1252 674 218 433 184 802 1075 1612 1374 1220 1167 1171 1182 1056
502 567 825 984 1008 986 745 502 833 699 519 749 864 775 930 976 1015 1102 1385 1623 1629 1258 998 1225 979 1124 1162 482 238 458 1101 1151 599 419 272 289 989 1169 938 1013 807 777 467
390 554 754 1075 1355 1320 1307 1314 1061 1048 851 1078 975 978 988 1138 1149 1004 846 1139 1403 1453 1091 1368 1588 1514 1118 978 757 333 453 514 349 633 484 458 404 455 707 532 756 598 364
283 459 680 1093 1552 1557 1398 1112 793 558 717 594 853 840 624 934 826 805 1037 1227 1260 1227 1181 1260 1376 1792 1895 1339 929 919 710 402 254 128 57 71 56 66 194 222 262 283 589
CIN
-0 -1 -7 -0 -0 -5 -10 -0 -0 -0 -0 -0 -0 -0 -0 -0 -0 -0 -0 -0 -0 -0 -0 -0 -0 -0 -0 -1 -1 -0 -0 -0 -0 -0 -0 -0 -0 -0 -3 -4 -5 -1 -0
-0 -0 -3 -0 -2 -5 -0 -0 -0 -4 -4 -3 -0 -0 -0 -0 -2 -0 -0 -0 -0 -0 -0 -0 -0 -0 -0 -0 -0 -1 -0 -0 -0 -0 -6 -10 -0 -2 -3 -0 -2 -1 -0
-7 -0 -0 -0 -0 -1 -2 -1 -3 -1 -3 -4 -3 -2 -0 -0 -0 -0 -0 -0 -0 -0 -0 -0 -0 -0 -0 -0 -0 -0 -0 -0 -0 -12 -18 -1 -0 -0 -0 -0 -0 -0 -0
-0 -0 -0 -5 -2 -0 -3 -3 -3 -1 -2 -2 -0 -3 -1 -2 -0 -0 -0 -0 -0 -0 -0 -0 -0 -0 -0 -0 -0 -0 -0 -2 -18 -17 -4 -7 -4 -0 -0 -0 -5 -2 -1
-0 -0 -1 -0 -0 -7 -3 -8 -2 -2 -1 -0 -0 -2 -3 -17 -37 -24 -14 -7 -0 -0 -0 -0 -0 -11 -26 -24 -9 -2 -0 -38 -46 -11 -9 -1 -4 -7 -1 -1 -0 -1 -2
-0 -0 -2 -0 -0 -0 -4 -4 -3 -3 -0 -0 -0 -0 -0 -0 -4 -33 -41 -44 -42 -13 -7 -15 -27 -52 -111 -56 -68 -0 -0 -34 -30 -32 -12 -28 -3 -6 -0 -3 -5 -5 -2
-0 -1 -7 -0 -0 -0 -2 -3 -2 -1 -0 -0 -0 -0 -0 -0 -0 -20 -39 -72 -81 -75 -68 -49 -73 -139 -117 -12 -48 -33 -39 -139 -128 -105 -48 -19 -37 -12 -0 -0 -2 -0 -0
-1 -1 -5 -6 -0 -1 -1 -3 -0 -0 -0 -0 -0 -1 -0 -0 -0 -9 -29 -47 -63 -87 -92 -110 -138 -157 -143 -79 -119 -134 -203 -220 -0 -213 -175 -142 -203 -70 -6 -7 -16 -24 -1
-0 -0 -0 -6 -2 -0 -8 -3 -0 -0 -0 -0 -0 -0 -0 -0 -9 -22 -37 -59 -79 -87 -102 -129 -170 -189 -196 -210 -147 -149 -289 -251 -156 -190 -177 -146 -237 -116 -127 -103 -92 -75 -55
-3 -1 -0 -4 -1 -26 -8 -2 -0 -0 -4 -17 -9 -13 -23 -35 -26 -27 -28 -48 -65 -117 -165 -193 -192 -201 -202 -233 -205 -298 -345 -13 -163 -188 -215 -280 -218 -121 -109 -77 -50 -91 -66
-14 -2 -1 -4 -8 -3 -0 -4 -24 -34 -40 -38 -33 -54 -19 -1 -0 -1 -97 -99 -80 -70 -65 -80 -112 -141 -166 -169 -255 -305 -307 -0 -0 -0 -0 -0 -0 -405 -232 -202 -210 -137 -109
-25 -9 -1 -18 -27 -0 -0 -0 -1 -4 -1 -1 -8 -1 -1 -2 -22 -7 -42 -87 -77 -94 -96 -99 -96 -86 -87 -9 -49 -126 -35 -78 -87 -0 -0 -0 -0 -0 -394 -345 -329 -297 -270
-15 -16 -2 -5 -3 -1 -0 -1 -2 -2 -7 -19 -21 -2 -20 -5 -5 -0 -1 -0 -1 -15 -1 -5 -8 -2 -0 -0 -6 -9 -27 -26 -57 -139 -113 -0 -0 -0 -411 -376 -382 -390 -377
-3 -16 -12 -5 -39 -1 -2 -12 -32 -9 -5 -1 -6 -13 -12 -1 -1 -0 -3 -1 -6 -6 -9 -3 -1 -1 -1 -0 -3 -5 -0 -9 -32 -59 -200 -8 -0 -0 -380 -292 -285 -304 -314
-6 -6 -12 -73 -32 -12 -27 -6 -0 -4 -1 -1 -0 -17 -2 -0 -2 -1 -6 -2 -2 -7 -13 -12 -5 -8 -10 -1 -1 -3 -1 -0 -0 -30 -47 -239 -336 -353 -307 -283 -227 -211 -222
-2 -4 -61 -63 -39 -26 -41 -18 -0 -0 -4 -4 -1 -2 -13 -1 -10 -1 -2 -0 -0 -8 -20 -8 -10 -7 -2 -2 -3 -7 -13 -1 -3 -8 -1 -42 -203 -276 -278 -252 -228 -207 -173
-1 -3 -74 -43 -60 -55 -52 -32 -2 -0 -1 -5 -0 -21 -13 -8 -11 -19 -1 -0 -0 -6 -14 -8 -9 -1 -2 -0 -3 -1 -1 -6 -1 -9 -12 -8 -26 -152 -187 -219 -214 -214 -190
-10 -13 -22 -54 -78 -69 -49 -19 -7 -5 -0 -8 -5 -2 -12 -10 -13 -13 -0 -1 -21 -19 -13 -15 -7 -5 -2 -3 -4 -0 -1 -1 -5 -11 -9 -10 -9 -7 -84 -127 -184 -192 -191
-65 -36 -34 -48 -82 -71 -70 -50 -39 -18 -3 -0 -17 -15 -3 -6 -7 -10 -2 -2 -29 -27 -17 -21 -19 -15 -8 -8 -5 -0 -2 -0 -3 -1 -14 -13 -14 -24 -11 -61 -118 -138 -152
-41 -71 -55 -56 -60 -68 -55 -57 -30 -18 -9 -0 -0 -0 -1 -1 -5 -14 -2 -10 -31 -35 -14 -4 -30 -37 -30 -18 -25 -11 -18 -10 -7 -2 -9 -3 -0 -18 -18 -27 -27 -13 -71
-42 -66 -74 -71 -72 -66 -38 -28 -13 -3 -2 -2 -0 -0 -0 -0 -1 -7 -2 -6 -28 -35 -10 -17 -17 -30 -23 -21 -44 -27 -29 -9 -10 -0 -1 -1 -3 -6 -25 -24 -17 -5 -2
-21 -42 -63 -72 -72 -70 -50 -39 -13 -0 -1 -0 -2 -0 -0 -0 -0 -1 -6 -1 -4 -18 -54 -21 -4 -18 -17 -5 -18 -51 -42 -39 -4 -9 -5 -5 -0 -2 -1 -1 -6 -8 -12
-17 -30 -41 -54 -57 -58 -46 -33 -21 -12 -6 -1 -0 -1 -0 -0 -0 -0 -0 -5 -8 -13 -12 -47 -27 -2 -16 -24 -5 -13 -44 -59 -48 -72 -8 -4 -2 -1 -1 -2 -2 -0 -2
-14 -23 -31 -44 -47 -40 -51 -26 -10 -16 -11 -1 -1 -1 -1 -5 -4 -0 -0 -0 -4 -4 -7 -6 -12 -15 -17 -70 -90 -44 -17 -18 -60 -84 -54 -42 -1 -3 -3 -6 -2 -0 -3
-9 -11 -22 -32 -36 -40 -38 -42 -15 -18 -4 -1 -0 -0 -9 -11 -9 -3 -0 -0 -0 -1 -2 -7 -13 -6 -6 -6 -18 -55 -44 -42 -51 -25 -43 -30 -24 -15 -5 -16 -10 -4 -9
-47 -40 -25 -40 -30 -22 -24 -52 -37 -25 -13 -15 -5 -10 -5 -5 -1 -0 -3 -4 -3 -4 -4 -2 -1 -0 -3 -8 -8 -8 -11 -35 -51 -64 -100 -112 -122 -127 -37 -37 -40 -29 -2
Wind_Speed
22 21 15 16 19 15 6 7 26 31 32 21 17 15 14 25 24 22 23 24 24 24 24 23 24 24 21 17 25 29 28 28 29 29 29 28 28 27 26 25 25 24 24
28 17 16 17 16 11 9 20 26 28 21 15 12 5 4 24 24 24 24 24 25 23 22 23 22 23 22 4 5 11 27 29 29 28 28 29 27 27 24 19 19 26 25
26 26 14 13 7 12 6 19 15 13 10 8 5 24 27 25 21 23 22 21 22 22 21 21 22 19 8 5 2 17 23 27 27 24 21 25 27 25 25 25 26 25 25
26 26 1 9 2 6 29 22 13 12 10 8 4 23 25 23 22 21 20 22 20 20 19 17 6 11 12 14 15 23 25 26 25 20 22 25 26 25 25 25 24 24 25
30 25 1 2 6 4 10 15 14 10 9 3 26 25 26 26 25 26 23 16 8 1 3 10 11 11 12 16 19 22 26 27 25 24 24 20 27 25 24 24 25 23 19
31 20 11 5 4 2 14 10 11 7 4 19 27 28 19 28 28 29 26 19 20 16 14 12 10 10 13 15 22 23 29 26 20 24 25 24 21 26 25 23 22 23 22
28 23 19 6 7 6 17 8 10 3 2 27 25 15 6 19 29 29 27 22 21 19 18 15 13 13 12 12 30 28 27 21 21 22 23 18 22 21 24 24 23 23 23
21 19 19 9 4 8 9 11 7 2 7 27 9 7 3 3 3 23 27 23 21 22 22 20 17 14 13 24 28 25 22 19 21 22 22 21 21 21 22 23 22 21 20
19 19 19 16 6 9 11 9 6 5 22 18 16 14 12 10 13 23 23 23 24 23 21 20 18 18 19 23 26 23 19 18 17 19 21 22 22 21 21 21 21 21 20
18 17 15 15 13 4 21 12 12 12 24 21 17 15 20 18 22 21 29 17 21 21 20 20 19 19 19 18 23 19 21 19 15 19 19 20 21 20 20 20 20 19 19
14 15 17 14 12 23 18 18 23 25 25 25 25 17 19 7 10 12 12 15 18 19 19 19 19 18 18 19 19 17 18 12 14 16 18 20 19 19 18 18 18 18 17
15 12 12 18 27 24 20 19 19 23 20 18 14 13 9 12 11 11 11 15 19 20 21 20 19 20 18 15 18 18 13 14 13 15 17 19 19 19 18 17 17 17 16
26 15 29 11 25 22 18 20 22 24 24 22 15 11 9 11 10 8 8 7 10 13 9 17 15 11 10 11 13 11 12 13 12 14 18 19 18 17 17 16 16 16 15
23 30 28 15 26 19 18 19 22 24 23 22 14 13 13 13 11 11 9 9 10 10 9 10 9 9 10 11 11 11 13 12 13 13 17 17 17 16 15 15 15 16 15
26 33 29 26 25 19 19 15 16 22 23 20 19 14 13 12 11 11 11 10 10 11 10 10 9 9 11 12 11 11 10 11 12 12 13 15 14 14 13 13 13 13 13
29 34 26 32 25 22 19 18 18 19 21 21 19 15 15 13 13 13 13 13 11 11 11 11 11 11 11 11 10 10 11 12 11 11 11 13 12 11 11 10 10 9 9
30 33 34 33 29 24 22 22 19 19 21 21 21 20 17 15 14 15 15 15 14 15 15 14 14 13 13 13 13 12 13 13 13 12 12 10 11 9 9 8 7 6 6
27 32 33 32 31 26 22 21 20 18 19 20 21 21 20 18 17 17 18 17 17 18 18 17 16 16 16 15 15 15 15 15 15 13 12 11 8 7 8 7 7 5 4
20 21 27 30 28 15 17 20 20 19 20 20 21 22 21 20 20 20 20 20 20 21 21 20 19 19 19 19 19 18 18 18 17 18 15 11 7 5 5 9 9 7 7
14 14 18 20 24 20 18 20 21 21 22 21 21 22 22 21 20 21 22 22 23 23 23 21 22 22 23 22 23 22 21 21 20 19 17 13 10 7 7 11 12 12 12
6 11 13 16 12 5 27 23 22 23 23 23 23 24 23 23 23 22 23 23 23 24 24 25 26 26 26 25 26 25 25 23 23 22 23 23 24 21 19 18 16 18 18
7 3 6 11 10 14 18 23 23 21 22 23 22 22 25 25 25 25 25 24 23 25 26 26 26 28 28 25 27 28 26 26 12 26 26 22 22 20 20 20 20 19 20
5 6 7 5 4 2 15 16 19 22 24 22 21 21 23 25 27 27 27 27 26 25 26 25 27 27 30 29 24 28 30 29 30 28 24 16 21 24 23 24 19 22 22
11 3 2 3 2 3 4 8 16 20 22 23 21 23 24 26 28 30 28 26 26 29 28 28 21 23 27 31 31 30 27 32 31 31 32 23 11 13 27 20 25 20 23
3 3 1 5 8 9 8 6 12 16 23 20 21 23 26 27 26 26 28 29 28 27 28 24 28 22 24 25 30 31 32 33 29 20 28 10 20 17 17 11 34 6 23
8 8 7 8 13 14 17 21 26 26 24 27 28 27 29 28 26 24 23 24 27 30 30 29 31 29 25 28 24 27 30 29 31 35 34 37 32 33 22 25 7 24 9
Wind_Direction
164 161 172 171 162 166 174 40 67 85 109 145 153 155 157 61 59 49 51 53 54 54 55 56 57 60 46 35 110 94 73 74 78 82 82 81 89 92 104 111 102 70 75
153 173 174 171 170 174 165 55 68 124 145 154 157 171 5 59 57 59 58 55 59 52 49 53 50 53 50 359 2 25 67 85 88 95 90 86 97 98 112 132 120 91 88
158 156 178 179 185 175 33 60 159 162 166 169 179 55 69 59 44 54 52 47 49 51 48 49 51 43 18 171 186 143 123 103 103 117 127 107 93 108 105 103 103 106 100
157 154 180 189 185 35 90 137 168 168 170 174 1 48 62 51 48 47 41 53 46 50 45 38 20 161 158 152 145 124 117 114 117 132 125 112 105 109 106 106 106 107 97
139 98 45 29 35 22 182 167 167 179 177 212 69 59 64 65 62 69 59 34 21 350 178 166 161 159 154 145 137 128 115 110 120 121 121 131 108 111 112 112 106 114 131
120 80 56 34 16 328 174 183 177 187 192 38 74 99 132 79 79 96 123 149 149 156 158 159 159 155 149 146 132 125 111 119 133 126 122 122 124 110 113 117 118 116 116
110 90 78 31 21 219 167 194 180 334 301 74 84 152 5 41 82 109 125 144 147 151 150 152 151 147 146 145 111 115 119 132 133 130 126 131 123 124 116 111 112 112 110
87 82 81 43 330 214 199 185 194 303 182 79 168 172 163 153 144 136 130 141 147 144 142 143 145 146 145 127 115 123 130 139 133 129 127 126 123 122 119 113 112 114 115
86 86 85 70 6 216 202 201 207 205 136 148 154 158 156 156 151 137 139 141 141 141 144 144 144 142 136 127 124 129 135 140 139 134 129 124 123 122 118 115 113 113 114
93 85 75 72 57 288 168 191 186 179 134 144 156 159 147 148 141 142 117 153 147 146 149 148 147 142 139 139 131 137 136 138 145 136 132 128 123 121 117 114 113 114 109
91 86 90 74 59 167 177 170 142 128 132 133 133 158 155 183 173 167 170 167 160 154 153 152 148 148 148 140 141 145 144 153 149 141 133 125 123 120 119 115 113 112 113
112 94 82 99 126 172 174 174 169 146 158 164 177 178 191 176 176 178 181 168 152 150 144 146 148 147 154 161 152 147 162 154 154 144 134 123 120 115 115 111 109 109 109
146 115 174 83 181 183 189 174 157 147 146 155 181 194 206 191 194 205 209 212 191 178 184 159 164 181 193 193 178 184 172 161 163 149 129 119 117 115 112 108 105 104 105
137 160 194 222 186 201 198 184 161 155 154 162 201 203 192 190 199 200 211 213 208 207 209 204 214 221 220 196 198 196 179 176 170 158 127 121 115 113 112 106 103 98 99
142 167 194 195 197 209 198 209 202 172 165 184 184 208 214 210 219 219 218 229 225 218 227 235 237 247 217 205 212 201 208 201 189 170 151 124 123 115 114 109 102 98 95
150 173 201 187 199 200 206 201 197 198 183 181 195 216 218 225 238 234 224 231 249 252 249 254 249 256 247 240 242 235 225 214 207 202 170 125 122 124 115 111 103 99 94
151 159 179 180 192 198 195 183 195 192 179 182 192 208 223 233 247 235 246 242 256 251 250 258 256 263 264 255 250 250 237 245 239 230 206 173 117 118 113 108 102 99 87
137 158 164 177 181 196 209 205 204 211 202 191 188 202 225 236 248 239 241 250 260 250 255 257 265 266 275 265 257 258 257 253 258 227 209 195 150 131 94 91 78 74 78
116 125 148 165 159 243 238 228 226 225 209 209 205 201 226 242 253 253 250 259 256 248 254 259 261 267 268 267 255 265 263 263 258 267 244 214 172 128 94 56 48 46 52
100 111 127 136 218 238 249 247 240 231 219 219 212 212 224 239 260 261 258 264 257 251 250 271 266 266 262 271 266 264 265 269 270 271 259 230 45 59 51 36 31 36 37
70 106 123 137 130 102 207 246 253 246 246 241 240 230 236 240 252 264 257 267 267 256 267 261 265 263 267 278 264 269 267 260 275 298 294 297 343 11 21 24 29 21 19
93 77 114 136 138 148 270 248 255 267 270 264 271 273 256 247 253 254 265 272 284 272 269 272 275 271 269 290 279 270 260 266 355 285 300 270 355 9 12 11 9 10 9
117 125 129 129 136 146 268 284 281 276 273 281 282 285 282 275 262 265 272 271 278 284 281 289 279 282 275 281 303 290 266 261 275 269 299 355 347 344 350 350 0 358 357
143 130 156 159 165 311 309 307 297 292 286 285 294 289 286 284 278 269 277 288 290 280 284 286 305 299 294 284 285 289 300 282 261 261 281 262 347 357 335 349 342 353 350
73 96 340 294 289 291 298 303 305 301 286 297 299 296 287 284 294 293 285 280 289 294 291 299 290 301 300 303 295 295 294 291 306 239 256 306 336 340 345 343 313 280 346
314 307 314 306 289 289 287 286 280 279 288 283 281 289 285 290 297 302 305 304 296 292 293 294 290 292 297 296 302 302 300 303 302 283 260 274 272 314 333 335 307 264 5